Погода Мыс Терпения

Погода Мыс Терпения : погода сейчас, прогноз погоды и архив. Всё, что Вы хотите узнать о погоде Мыс Терпения!

Поиск расширенной информации на нашем сайте:

Другие новости

Новости СМИ2

Главная страница сайта

Новости сайта

03.07.2017

Напоминаем, что на нашем специализированном сайте Метеоцентр.Азия вы можете получить высокодетализированные автоматические прогнозы погоды по пунктам России, СНГ и мира в авиационном формате (включающие направление и скорость ветра, видимость, явления погоды, количество и форму облачности, нижнюю и верхнюю границу облачности).

Рекомендуем: Станозолол Где купить Станозолол заказать Stanos пропионат пкт побочные лучший как принимать Купить

Погода Мыс Терпения - сегодня

Время (UTC), дата Ветер
(°,м/с) 
Видим.   Явления Облачность Т
(°С)
Тd
(°С)
f(%) Тe
(°С)
Pmin
(гПа)
dP
(гПа)
Po
(мм)
O2
(г/м3)
Тmin Tmax R s Состояние
почвы
21 10.04.18 080 (В) 5-7{08}  0200 м  туман  ?/?  
-3.4 -4.6 91 -7  1014  0.4  760  311  -3.5      мокрый или
старый снег
50-90% 
21 11.04.18 030 (СВ) 18-23{23}  1000 м  слаб. ливневой снег  10/10 300 м кучево-дожд. 
[Cb cap]
-1.6 -2.7 92 -9  996  -1.3  746  303  -1.7    неравномерный
сухой снег
100% 
00 12.04.18 020 (С) 19-23{24}  0200 м  ливневой снег  10/10 600 м кучево-дожд. 
[Cb cap]
-2.5 -3.9 90 -10  997.4  1.4  747  304  -2.5         
21 12.04.18 330 (СЗ) 10-12{15}  20000 м  позёмок  9/9 600 м кучево-дожд. 
[Cb cap]
-5.7 -8.2 82 -12  1014.5  1.4  760  314  -6.8      неравномерный
сухой снег
100% 
00 13.04.18 310 (СЗ) 9-10{13}  20000 м  позёмок  9/6 600 м кучево-дожд., средняя 
[Cb cap|Ac trans]
-4.3 -10.4 62 -10  1015.7  1.2  761  313           
12 13.04.18 210 (ЮЗ) 5-6{07}  20000 м    ясно 
-2.9 -7.2 72 -6  1016.4  0.1  762  311           
15 13.04.18 270 (З) 8-10{11}  20000 м    ясно 
-1.6 -5.8 73 -6  1015.9  -0.5  761  309           
18 13.04.18 270 (З) 8-9{12}  20000 м    ясно 
-1.9 -4.9 80 -7  1015  -0.9  761  309           
21 13.04.18 290 (З) 6-7{09}  20000 м    ясно 
-2.2 -6.1 75 -6  1015.1  0.1  761  310  -3.3      неравномерный
сухой снег
100% 
03 14.04.18 220 (ЮЗ) 5-6{08}  20000 м    ясно 
+0.9 -4.3 68 -2  1014.5  -0.5  760  306           
06 14.04.18 200 (Ю) 5-7{07}  20000 м    ясно 
+1 -2 80 -2  1013.8  -0.7  760  305           
12 14.04.18 030 (СВ) 4-5{09}  20000 м    ясно 
-1.5 -4.1 82 -4  1014.5  0.9  760  308           
15 14.04.18 050 (СВ) 6-8{08}  20000 м    ясно 
-2.9 -5.4 83 -7  1014.7  0.1  760  310           
18 14.04.18 050 (СВ) 7-8{08}  20000 м    ясно 
-4 -6 86 -9  1013.7  -0.9  760  311           
21 14.04.18 070 (В) 6-8{08}  20000 м    ясно 
-4.9 -7.1 85 -9  1013.8  0.1  760  312  -5      мокрый или
старый снег
50-90% 
21 15.04.18 330 (СЗ) 6-6{09}  20000 м    9/9 600 м кучево-дожд. 
[Cb cap]
-7.2 -9.6 83 -12  1006.2  754  313  -7.9      мокрый или
старый снег
50-90% 
06 16.04.18 200 (Ю) 8-9{09}  20000 м    ясно 
-0.7 -4.9 73 -5  1007.2  -0.2  755  305           
12 16.04.18 220 (ЮЗ) 9-11{12}  20000 м    ясно 
-0.6 -3.3 82 -5  1009.8  2.3  757  306           
15 16.04.18 230 (ЮЗ) 8-9{11}  20000 м    ясно 
-0.5 -2.7 85 -5  1009.4  -0.4  756  306           
18 16.04.18 220 (ЮЗ) 11-14{14}  20000 м    ясно 
+0.1 -3 80 -5  1008.2  -1.3  755  305           
03 17.04.18 230 (ЮЗ) 9-12{12}  20000 м    ясно 
+4.4 -2.1 63 +1  1009.7  0.1  757  300           
21 17.04.18 210 (ЮЗ) 8-10{12}  20000 м    9/9 600 м 
[Sc]
+0.9 -2.2 80 -3  1009.9  -0.4  757  304  +0.3      <0.5  мокрый или
старый снег
50-90% 
21 18.04.18 010 (С) 5-6{11}  20000 м    10/10 600 м кучево-дожд. 
[Cb cap]
-0.3 -1.8 90 -3  1011.8  1.4  758  306  -0.8      <0.5  мокрый или
старый снег
50-90% 
21 19.04.18 160 (Ю) 3-4{05}  20000 м  {ливн. осадки}  10/0 средняя 
[Ac und]
-0.7 -2.4 88 -3  1012  -1.6  758  307  -0.8    0.6  сухой снег
50-90% 
00 20.04.18 190 (Ю) 6-7{08}  20000 м  {ливн. осадки}  10/10 600 м кучево-дожд. 
[Cb cap]
+0.2 -0.8 93 -3  1011  -1  758  305           
Время (UTC), дата Ветер
(°,м/с) 
Видим.   Явления Облачность Т
(°С)
Тd
(°С)
f(%) Тe
(°С)
Pmin
(гПа)
dP
(гПа)
Po
(мм)
O2
(г/м3)
Тmin Tmax R s Состояние
почвы

Для получения пояснительной информации подведите курсор к названию столбца.

ПОГОДА Мыс Терпения - архив

Всё, что Вы хотите узнать о погоде Мыс Терпения - удобно и подробно!

Выберите нужную дату (начиная с 1 января 2015* года) и нажмите кнопку "Найти".
Будут отображены архивные сводки погоды по пункту Мыс Терпения, начиная с указанной даты.


Отображать данные в формате CSV (для использования в таблицах Excel)


Внимание! Наш архив погоды предназначен исключительно для личного некоммерческого использования в познавательных целях. Если Вам необходимы официальные справки о состоянии погоды (для производственных, юридических, коммерческих и т.п. целей), обращайтесь в органы Росгидромета.

*Примечание: данная дата относится к архиву по метеостанциям СССР (Россия, СНГ, Балтия).
Архив по метеостанциям Зарубежной Европы и Азии (кроме Китая) хранится 10 дней, по другим регионам земного шара (Китай, Африка, Америка, Австралия, Океания) - 1 день.

Мыс Терпения - район местоположения метеостанции


Название, широта, долгота, высота метеостанции:
Мыс Терпения 48.6°ш. 144.7°д. 33 м над ур. моря [Российская Федерация]

Дополнительная информация

В oтличие oт бoльшинства пoгoдных сайтoв мы публикуем пoдрoбную метеoинфoрмацию в детальнoм прoфессиoнальнoм фoрмате.

Характеристики температуры и влажнoсти вoздуха измеряются на высoте 2 м в тени вдали oт зданий и деревьев.
Скoрoсть ветра измеряется на высoте 10 м (на урoвне рoста челoвека скoрoсть ветра ниже в 1.5-2 раза). Если метеoстанция нахoдится в гoрoде или в лесу, тo скoрoсть ветра занижена на 2-4 м/с пo сравнению с oткрытым местoм. Скoрoсть ветра над акватoриями крупных рек и oзёр, а также на вершинах хoлмoв на 2-5 м/с выше, чем в oбычных услoвиях.
Атмoсфернoе давление в разных тoчках местнoсти мoжет значительнo oтличаться oт давления на метеoстанции, в зависимoсти oт услoвий рельефа (при пoдъёме на 10 м давление пoнижается примернo на 1 мм рт.ст.).